INTELSAT 12 (IS-12)

Last updated on Aug. 6, 2020, 5:30 a.m. UTC

1 26590U 00068A   20218.88258181 -.00000002  00000-0  00000-0 0  9993
2 26590   3.0441  85.8255 0003989  49.4860 201.5153  1.00269058 30246
UTC
Height (km)
Latitude
Longitude
Inclination
Orbital Period
UTC large
Height (km)
Speed (km/s)
/
Latitude / Longitude
Inclination (degrees)
Orbital Period (minutes)
Azimuth
Elevation
Range (km)
Doppler Factor
iOS Compass Heading
iOS Angle

Next 30 passes for location: Hong Kong

Rise time Rise Azimuth (degrees) Set time Set Azimuth (degrees) Duration Max altitude (degrees)

No matching passes for this satellites